Location: Puketoi
(40.5833°S, 176.0167°E)
Time: 01:17:02
(UTC+00:00)

COSMOS 2455 - Pass Details

Date: 05 October 2023
Orbit: 902 x 907 km, 67.1° (Epoch: 03 December)

Event Time Altitude Azimuth Distance (km) Brightness Sun altitude
Exits shadow 09:42:05 30° 161° (SSE) 1,581 4.2 -34.2°
Drops below altitude 10° 09:45:02 10° 155° (SSE) 2,615 5.4 -34.6°
Sets 09:47:35 0° 152° (SSE) 3,561 6.2 -34.9°
